QPF
0.00 0.01 0.02 0.02 0.02 0.02 0.03 0.04 0.04 0.03 0.02 0.02 0.02 0.02 0.01 0.01 0.01 0.01 0.01 0.01 0.02 0.02 0.01 0.00 0.00 0.01 0.01 0.01 0.02 0.01 0.01 0.01 0.01 0.01 0.02 0.03 0.03 0.03 0.02 0.02 0.02 0.02 0.02 0.01
0.01 0.03 0.01 0.00 0.01 0.02 0.02 0.03 0.04 0.02 0.01 0.02 0.01 0.01 0.01 0.00 0.00 0.01 0.01 0.01 0.01 0.01 0.01 0.00 0.00 0.00 0.00 0.01 0.01 0.01 0.01 0.02 0.02 0.02 0.01 0.02 0.03 0.03 0.03 0.02 0.02 0.02 0.02 0.02
0.01 0.01 0.01 0.01 0.01 0.02 0.02 0.02 0.02 0.02 0.01 0.01 0.01 0.01 0.01 0.00 0.00 0.00 0.00 0.00 0.00 0.01 0.01 0.01 0.01 0.00 0.00 0.00 0.00 0.01 0.01 0.01 0.01 0.02 0.02 0.02 0.03 0.04 0.05 0.03 0.03 0.02 0.01 0.01
0.00 0.00 0.01 0.01 0.01 0.01 0.02 0.01 0.01 0.01 0.02 0.03 0.02 0.02 0.01 0.01 0.01 0.00 0.00 0.00 0.00 0.00 0.00 0.01 0.01 0.01 0.01 0.01 0.01 0.01 0.01 0.02 0.01 0.01 0.01 0.01 0.03 0.05 0.04 0.03 0.03 0.01 0.01 0.01
0.01 0.01 0.01 0.01 0.01 0.00 0.01 0.00 0.00 0.00 0.01 0.01 0.01 0.01 0.01 0.01 0.01 0.01 0.00 0.00 0.00 0.00 0.00 0.00 0.01 0.01 0.01 0.01 0.01 0.01 0.02 0.02 0.01 0.01 0.01 0.02 0.02 0.03 0.02 0.03 0.03 0.02 0.02 0.01
0.00 0.00 0.01 0.01 0.00 0.00 0.01 0.01 0.01 0.01 0.02 0.02 0.01 0.01 0.02 0.01 0.01 0.01 0.00 0.00 0.00 0.00 0.00 0.00 0.01 0.01 0.00 0.01 0.01 0.01 0.01 0.01 0.01 0.02 0.02 0.02 0.02 0.02 0.03 0.06 0.04 0.02 0.02 0.03
0.01 0.01 0.01 0.01 0.01 0.01 0.02 0.04 0.06 0.05 0.04 0.03 0.01 0.01 0.02 0.01 0.01 0.01 0.00 0.00 0.00 0.00 0.00 0.00 0.00 0.01 0.01 0.00 0.00 0.00 0.00 0.00 0.01 0.01 0.01 0.02 0.02 0.01 0.02 0.05 0.02 0.02 0.01 0.02
0.02 0.02 0.03 0.02 0.01 0.02 0.01 0.03 0.06 0.06 0.05 0.03 0.01 0.01 0.02 0.01 0.01 0.00 0.00 0.00 0.00 0.00 0.00 0.01 0.00 0.01 0.01 0.00 0.00 0.00 0.00 0.00 0.00 0.01 0.01 0.02 0.02 0.02 0.02 0.02 0.02 0.01 0.01 0.01
0.01 0.01 0.00 0.00 0.00 0.01 0.01 0.01 0.02 0.03 0.03 0.04 0.02 0.01 0.02 0.00 0.00 0.00 0.00 0.00 0.00 0.00 0.00 0.01 0.01 0.01 0.01 0.00 0.00 0.00 0.00 0.00 0.00 0.00 0.00 0.01 0.01 0.01 0.01 0.01 0.01 0.01 0.01 0.01
0.01 0.01 0.00 0.00 0.00 0.00 0.01 0.01 0.02 0.04 0.05 0.05 0.03 0.03 0.03 0.00 0.00 0.00 0.00 0.01 0.01 0.01 0.01 0.01 0.01 0.01 0.01 0.01 0.00 0.00 0.01 0.00 0.00 0.00 0.01 0.00 0.00 0.01 0.02 0.02 0.02 0.02 0.01 0.01
0.01 0.01 0.01 0.01 0.02 0.02 0.01 0.01 0.02 0.04 0.04 0.06 0.06 0.04 0.01 0.00 0.00 0.00 0.00 0.01 0.02 0.02 0.01 0.02 0.01 0.00 0.00 0.00 0.00 0.00 0.00 0.01 0.01 0.00 0.00 0.00 0.00 0.00 0.01 0.01 0.02 0.02 0.01 0.01
0.00 0.01 0.01 0.01 0.01 0.00 0.01 0.01 0.01 0.03 0.04 0.05 0.07 0.04 0.01 0.01 0.00 0.00 0.00 0.00 0.01 0.01 0.01 0.01 0.01 0.01 0.01 0.01 0.01 0.00 0.01 0.00 0.01 0.01 0.01 0.01 0.01 0.00 0.00 0.01 0.01 0.01 0.01 0.01
0.00 0.01 0.02 0.02 0.01 0.01 0.01 0.00 0.00 0.01 0.02 0.03 0.05 0.04 0.01 0.01 0.00 0.00 0.00 0.00 0.00 0.00 0.00 0.00 0.00 0.01 0.01 0.01 0.01 0.01 0.01 0.01 0.01 0.01 0.01 0.01 0.01 0.01 0.01 0.01 0.01 0.00 0.00 0.01
0.00 0.00 0.01 0.02 0.01 0.01 0.01 0.00 0.00 0.01 0.02 0.02 0.02 0.03 0.01 0.00 0.00 0.00 0.00 0.00 0.00 0.00 0.00 0.00 0.00 0.01 0.01 0.01 0.01 0.01 0.01 0.01 0.01 0.01 0.01 0.01 0.01 0.01 0.01 0.01 0.01 0.01 0.00 0.00
0.00 0.01 0.00 0.00 0.00 0.01 0.01 0.01 0.00 0.01 0.01 0.01 0.01 0.01 0.01 0.00 0.00 0.00 0.00 0.00 0.00 0.00 0.00 0.00 0.00 0.00 0.00 0.00 0.00 0.00 0.01 0.00 0.00 0.01 0.01 0.01 0.01 0.01 0.01 0.01 0.02 0.02 0.02 0.02
0.00 0.00 0.00 0.00 0.01 0.01 0.01 0.01 0.01 0.00 0.00 0.00 0.01 0.00 0.00 0.00 0.00 0.00 0.00 0.00 0.00 0.00 0.00 0.00 0.00 0.00 0.00 0.00 0.00 0.00 0.00 0.01 0.00 0.00 0.01 0.01 0.01 0.01 0.01 0.01 0.01 0.01 0.01 0.02
0.00 0.00 0.00 0.00 0.00 0.01 0.01 0.00 0.00 0.00 0.00 0.00 0.01 0.00 0.00 0.00 0.00 0.00 0.00 0.00 0.00 0.00 0.00 0.00 0.00 0.00 0.00 0.00 0.00 0.00 0.01 0.01 0.01 0.01 0.01 0.01 0.01 0.01 0.01 0.01 0.01 0.01 0.01 0.01
0.00 0.00 0.00 0.00 0.01 0.01 0.01 0.00 0.00 0.00 0.00 0.00 0.00 0.00 0.00 0.00 0.00 0.00 0.00 0.00 0.01 0.01 0.00 0.00 0.00 0.00 0.00 0.01 0.00 0.00 0.01 0.01 0.01 0.01 0.01 0.01 0.01 0.01 0.01 0.01 0.01 0.01 0.01 0.01
0.00 0.00 0.01 0.01 0.01 0.01 0.00 0.01 0.01 0.01 0.01 0.01 0.01 0.00 0.00 0.00 0.00 0.00 0.00 0.00 0.00 0.01 0.01 0.01 0.00 0.00 0.00 0.00 0.00 0.00 0.00 0.00 0.01 0.00 0.01 0.01 0.01 0.01 0.01 0.01 0.01 0.01 0.01 0.02
0.00 0.00 0.01 0.01 0.02 0.02 0.01 0.00 0.01 0.01 0.02 0.01 0.01 0.00 0.00 0.00 0.01 0.01 0.00 0.00 0.00 0.01 0.01 0.00 0.00 0.00 0.00 0.00 0.00 0.00 0.00 0.00 0.00 0.01 0.01 0.01 0.01 0.01 0.01 0.01 0.01 0.01 0.01 0.01
0.01 0.01 0.01 0.01 0.01 0.01 0.00 0.00 0.00 0.01 0.01 0.00 0.00 0.00 0.00 0.00 0.00 0.00 0.00 0.00 0.00 0.01 0.01 0.00 0.01 0.01 0.00 0.00 0.00 0.00 0.00 0.01 0.00 0.00 0.01 0.01 0.01 0.02 0.02 0.01 0.01 0.01 0.01 0.01
0.01 0.01 0.01 0.01 0.01 0.01 0.00 0.00 0.00 0.01 0.01 0.01 0.01 0.01 0.01 0.00 0.00 0.00 0.00 0.00 0.00 0.01 0.01 0.00 0.00 0.00 0.00 0.01 0.01 0.01 0.01 0.01 0.01 0.01 0.01 0.01 0.01 0.01 0.01 0.01 0.01 0.01 0.01 0.01
0.00 0.01 0.01 0.01 0.01 0.00 0.00 0.00 0.00 0.00 0.01 0.00 0.01 0.03 0.02 0.01 0.00 0.00 0.00 0.00 0.00 0.00 0.00 0.00 0.00 0.00 0.00 0.01 0.01 0.02 0.02 0.01 0.01 0.01 0.01 0.01 0.01 0.01 0.01 0.01 0.01 0.01 0.01 0.01
0.00 0.00 0.01 0.02 0.02 0.01 0.01 0.00 0.00 0.00 0.00 0.00 0.00 0.01 0.02 0.02 0.02 0.01 0.01 0.01 0.00 0.01 0.00 0.00 0.00 0.00 0.00 0.00 0.00 0.01 0.01 0.01 0.00 0.00 0.01 0.01 0.01 0.01 0.00 0.00 0.01 0.01 0.01 0.01
0.00 0.00 0.00 0.00 0.00 0.01 0.00 0.00 0.00 0.00 0.00 0.01 0.01 0.01 0.01 0.01 0.01 0.01 0.01 0.01 0.00 0.01 0.01 0.01 0.00 0.00 0.01 0.01 0.00 0.00 0.00 0.00 0.00 0.00 0.00 0.00 0.00 0.00 0.01 0.01 0.01 0.01 0.01 0.01
0.00 0.00 0.00 0.00 0.00 0.00 0.00 0.00 0.00 0.00 0.01 0.01 0.01 0.01 0.01 0.01 0.02 0.03 0.03 0.02 0.01 0.01 0.01 0.01 0.01 0.01 0.01 0.00 0.00 0.00 0.00 0.00 0.00 0.00 0.00 0.00 0.00 0.00 0.00 0.01 0.01 0.01 0.01 0.01
MSLP
1009.47 1010.22 1010.83 1011.26 1011.55 1011.72 1011.81 1011.85 1011.87 1011.88 1011.89 1011.90 1011.91 1011.93 1011.99 1012.12 1012.32 1012.59 1012.94 1013.31 1013.68 1013.97 1014.16 1014.20 1014.12 1013.92 1013.68 1013.44 1013.28 1013.24 1013.35 1013.59 1013.94 1014.35 1014.75 1015.10 1015.37 1015.55 1015.66 1015.71 1015.76 1015.83 1015.96 1016.15
1009.77 1010.35 1010.77 1011.05 1011.22 1011.32 1011.38 1011.45 1011.53 1011.60 1011.66 1011.70 1011.70 1011.68 1011.67 1011.69 1011.78 1011.97 1012.25 1012.60 1012.97 1013.32 1013.58 1013.72 1013.74 1013.64 1013.48 1013.33 1013.23 1013.24 1013.41 1013.71 1014.12 1014.58 1015.04 1015.44 1015.74 1015.93 1016.03 1016.06 1016.08 1016.13 1016.23 1016.41
1009.82 1010.22 1010.46 1010.60 1010.67 1010.73 1010.80 1010.93 1011.08 1011.23 1011.36 1011.41 1011.39 1011.31 1011.20 1011.10 1011.08 1011.17 1011.39 1011.73 1012.14 1012.56 1012.94 1013.21 1013.36 1013.39 1013.34 1013.27 1013.23 1013.30 1013.50 1013.83 1014.27 1014.77 1015.26 1015.69 1016.02 1016.22 1016.32 1016.35 1016.36 1016.39 1016.47 1016.64
1009.67 1009.88 1009.97 1009.99 1010.01 1010.07 1010.20 1010.41 1010.67 1010.91 1011.09 1011.16 1011.11 1010.94 1010.71 1010.48 1010.33 1010.32 1010.48 1010.81 1011.27 1011.79 1012.30 1012.72 1013.02 1013.19 1013.25 1013.26 1013.28 1013.37 1013.58 1013.92 1014.36 1014.87 1015.37 1015.82 1016.17 1016.40 1016.51 1016.55 1016.56 1016.59 1016.68 1016.85
1009.37 1009.43 1009.41 1009.38 1009.39 1009.50 1009.72 1010.05 1010.42 1010.76 1011.00 1011.07 1010.96 1010.69 1010.32 1009.94 1009.65 1009.53 1009.62 1009.94 1010.45 1011.06 1011.70 1012.28 1012.73 1013.04 1013.20 1013.29 1013.34 1013.44 1013.63 1013.95 1014.37 1014.85 1015.35 1015.81 1016.18 1016.44 1016.59 1016.66 1016.69 1016.74 1016.85 1017.02
1009.04 1009.00 1008.92 1008.88 1008.93 1009.14 1009.49 1009.95 1010.45 1010.88 1011.16 1011.21 1011.03 1010.65 1010.13 1009.59 1009.14 1008.90 1008.92 1009.21 1009.75 1010.44 1011.20 1011.91 1012.49 1012.91 1013.17 1013.31 1013.38 1013.47 1013.63 1013.90 1014.28 1014.73 1015.22 1015.68 1016.07 1016.36 1016.55 1016.67 1016.74 1016.83 1016.96 1017.15
1008.77 1008.67 1008.59 1008.59 1008.73 1009.06 1009.55 1010.15 1010.76 1011.26 1011.56 1011.59 1011.33 1010.82 1010.15 1009.45 1008.86 1008.49 1008.42 1008.68 1009.22 1009.96 1010.79 1011.60 1012.29 1012.80 1013.13 1013.30 1013.38 1013.45 1013.57 1013.79 1014.11 1014.53 1015.00 1015.46 1015.87 1016.20 1016.44 1016.60 1016.72 1016.85 1017.00 1017.21
1008.58 1008.49 1008.44 1008.52 1008.78 1009.23 1009.85 1010.57 1011.26 1011.82 1012.12 1012.11 1011.77 1011.15 1010.35 1009.50 1008.78 1008.30 1008.14 1008.34 1008.86 1009.61 1010.49 1011.35 1012.10 1012.67 1013.04 1013.24 1013.32 1013.37 1013.45 1013.63 1013.91 1014.30 1014.74 1015.21 1015.64 1016.00 1016.28 1016.49 1016.65 1016.80 1016.97 1017.20
1008.48 1008.43 1008.46 1008.63 1009.00 1009.56 1010.28 1011.07 1011.82 1012.39 1012.67 1012.62 1012.20 1011.49 1010.59 1009.65 1008.83 1008.26 1008.03 1008.17 1008.65 1009.39 1010.26 1011.14 1011.91 1012.51 1012.91 1013.12 1013.21 1013.25 1013.31 1013.46 1013.71 1014.07 1014.51 1014.97 1015.41 1015.80 1016.11 1016.34 1016.52 1016.69 1016.87 1017.09
1008.42 1008.44 1008.55 1008.82 1009.27 1009.91 1010.68 1011.49 1012.23 1012.77 1013.02 1012.92 1012.46 1011.70 1010.76 1009.77 1008.91 1008.30 1008.02 1008.12 1008.55 1009.25 1010.09 1010.94 1011.71 1012.31 1012.72 1012.95 1013.05 1013.10 1013.17 1013.31 1013.55 1013.91 1014.33 1014.79 1015.23 1015.63 1015.94 1016.18 1016.37 1016.54 1016.71 1016.91
1008.32 1008.42 1008.61 1008.95 1009.45 1010.11 1010.87 1011.64 1012.33 1012.81 1013.00 1012.85 1012.38 1011.62 1010.70 1009.75 1008.91 1008.31 1008.04 1008.11 1008.51 1009.15 1009.94 1010.75 1011.48 1012.07 1012.48 1012.72 1012.86 1012.94 1013.03 1013.19 1013.45 1013.80 1014.23 1014.67 1015.11 1015.49 1015.80 1016.03 1016.21 1016.35 1016.50 1016.68
1008.15 1008.33 1008.59 1008.96 1009.47 1010.09 1010.78 1011.46 1012.03 1012.42 1012.54 1012.37 1011.90 1011.20 1010.36 1009.51 1008.77 1008.25 1008.03 1008.11 1008.48 1009.07 1009.79 1010.54 1011.22 1011.78 1012.19 1012.46 1012.63 1012.76 1012.90 1013.11 1013.39 1013.75 1014.18 1014.62 1015.03 1015.40 1015.68 1015.89 1016.04 1016.16 1016.29 1016.45
1007.90 1008.15 1008.46 1008.84 1009.31 1009.84 1010.41 1010.94 1011.37 1011.63 1011.68 1011.49 1011.06 1010.46 1009.76 1009.07 1008.48 1008.09 1007.95 1008.07 1008.43 1008.98 1009.63 1010.31 1010.93 1011.45 1011.85 1012.14 1012.36 1012.55 1012.75 1013.01 1013.34 1013.72 1014.15 1014.58 1014.97 1015.31 1015.57 1015.75 1015.89 1015.99 1016.10 1016.24
1007.62 1007.93 1008.26 1008.62 1009.02 1009.43 1009.83 1010.19 1010.45 1010.58 1010.54 1010.33 1009.97 1009.49 1008.96 1008.46 1008.07 1007.84 1007.81 1007.99 1008.35 1008.86 1009.44 1010.03 1010.59 1011.06 1011.45 1011.77 1012.03 1012.29 1012.56 1012.88 1013.24 1013.66 1014.09 1014.51 1014.89 1015.20 1015.44 1015.62 1015.74 1015.85 1015.96 1016.10
1007.38 1007.73 1008.07 1008.39 1008.69 1008.96 1009.19 1009.35 1009.43 1009.41 1009.29 1009.07 1008.77 1008.42 1008.07 1007.78 1007.58 1007.52 1007.61 1007.85 1008.23 1008.69 1009.20 1009.71 1010.19 1010.62 1010.99 1011.32 1011.63 1011.94 1012.28 1012.66 1013.07 1013.51 1013.95 1014.37 1014.74 1015.05 1015.29 1015.47 1015.61 1015.73 1015.86 1016.03
1007.23 1007.61 1007.95 1008.22 1008.41 1008.54 1008.58 1008.55 1008.46 1008.30 1008.10 1007.86 1007.61 1007.39 1007.20 1007.09 1007.08 1007.17 1007.37 1007.67 1008.04 1008.46 1008.90 1009.33 1009.73 1010.11 1010.46 1010.79 1011.14 1011.50 1011.90 1012.33 1012.79 1013.25 1013.71 1014.14 1014.51 1014.83 1015.08 1015.29 1015.46 1015.63 1015.80 1016.00
1007.22 1007.61 1007.92 1008.13 1008.22 1008.20 1008.08 1007.88 1007.62 1007.34 1007.06 1006.80 1006.59 1006.46 1006.41 1006.45 1006.58 1006.80 1007.08 1007.42 1007.78 1008.16 1008.52 1008.87 1009.20 1009.53 1009.85 1010.19 1010.55 1010.96 1011.40 1011.88 1012.37 1012.87 1013.35 1013.79 1014.19 1014.53 1014.82 1015.07 1015.30 1015.52 1015.75 1015.99
1007.29 1007.67 1007.94 1008.08 1008.08 1007.94 1007.68 1007.34 1006.95 1006.55 1006.20 1005.92 1005.74 1005.67 1005.71 1005.87 1006.10 1006.40 1006.74 1007.09 1007.44 1007.76 1008.07 1008.34 1008.61 1008.89 1009.18 1009.51 1009.90 1010.33 1010.81 1011.32 1011.85 1012.37 1012.87 1013.34 1013.76 1014.14 1014.47 1014.78 1015.07 1015.36 1015.64 1015.94
1007.36 1007.71 1007.92 1008.00 1007.91 1007.67 1007.30 1006.85 1006.36 1005.89 1005.49 1005.19 1005.02 1004.99 1005.09 1005.31 1005.61 1005.97 1006.33 1006.69 1007.01 1007.30 1007.54 1007.76 1007.98 1008.21 1008.49 1008.81 1009.20 1009.65 1010.15 1010.69 1011.23 1011.78 1012.30 1012.79 1013.25 1013.66 1014.05 1014.42 1014.77 1015.12 1015.46 1015.79
1007.34 1007.61 1007.76 1007.75 1007.59 1007.27 1006.83 1006.31 1005.77 1005.26 1004.83 1004.53 1004.37 1004.36 1004.51 1004.76 1005.10 1005.48 1005.86 1006.21 1006.52 1006.77 1006.98 1007.17 1007.35 1007.56 1007.81 1008.13 1008.51 1008.96 1009.47 1010.01 1010.57 1011.12 1011.66 1012.17 1012.65 1013.11 1013.54 1013.96 1014.36 1014.76 1015.14 1015.50
1007.12 1007.29 1007.35 1007.27 1007.04 1006.68 1006.20 1005.66 1005.11 1004.59 1004.17 1003.88 1003.75 1003.77 1003.94 1004.22 1004.58 1004.97 1005.36 1005.71 1006.01 1006.25 1006.44 1006.61 1006.77 1006.96 1007.20 1007.50 1007.87 1008.31 1008.80 1009.33 1009.88 1010.43 1010.96 1011.48 1011.98 1012.47 1012.93 1013.39 1013.83 1014.27 1014.67 1015.05
1006.68 1006.73 1006.69 1006.53 1006.25 1005.87 1005.39 1004.87 1004.35 1003.88 1003.50 1003.26 1003.16 1003.21 1003.40 1003.71 1004.08 1004.49 1004.88 1005.24 1005.55 1005.79 1005.98 1006.15 1006.31 1006.48 1006.70 1006.98 1007.32 1007.73 1008.18 1008.67 1009.19 1009.71 1010.24 1010.75 1011.25 1011.75 1012.24 1012.72 1013.19 1013.64 1014.06 1014.45
1006.04 1005.97 1005.83 1005.60 1005.29 1004.91 1004.48 1004.01 1003.56 1003.17 1002.87 1002.68 1002.64 1002.73 1002.95 1003.28 1003.67 1004.09 1004.50 1004.87 1005.19 1005.45 1005.66 1005.83 1005.99 1006.15 1006.35 1006.59 1006.88 1007.23 1007.63 1008.07 1008.53 1009.01 1009.50 1009.99 1010.48 1010.97 1011.46 1011.95 1012.43 1012.89 1013.32 1013.72
1005.30 1005.11 1004.87 1004.60 1004.29 1003.94 1003.57 1003.19 1002.85 1002.56 1002.35 1002.25 1002.27 1002.41 1002.67 1003.01 1003.42 1003.85 1004.28 1004.67 1005.01 1005.29 1005.51 1005.69 1005.84 1005.99 1006.15 1006.35 1006.58 1006.86 1007.18 1007.54 1007.93 1008.34 1008.78 1009.23 1009.69 1010.16 1010.64 1011.12 1011.59 1012.05 1012.48 1012.88
1004.56 1004.27 1003.98 1003.68 1003.39 1003.10 1002.82 1002.55 1002.32 1002.15 1002.04 1002.03 1002.12 1002.31 1002.59 1002.95 1003.37 1003.81 1004.25 1004.65 1005.01 1005.31 1005.54 1005.73 1005.87 1006.00 1006.12 1006.25 1006.41 1006.60 1006.83 1007.10 1007.41 1007.75 1008.11 1008.51 1008.93 1009.37 1009.82 1010.27 1010.73 1011.17 1011.59 1011.98
1003.93 1003.58 1003.26 1002.97 1002.72 1002.51 1002.33 1002.18 1002.07 1002.00 1002.00 1002.06 1002.20 1002.43 1002.73 1003.10 1003.52 1003.95 1004.39 1004.80 1005.17 1005.48 1005.73 1005.92 1006.05 1006.15 1006.23 1006.30 1006.38 1006.48 1006.62 1006.80 1007.01 1007.26 1007.56 1007.89 1008.25 1008.63 1009.04 1009.45 1009.87 1010.28 1010.67 1011.05
Thickness
5754 5742 5733 5739 5744 5741 5739 5734 5730 5738 5749 5741 5735 5735 5741 5746 5744 5741 5739 5738 5736 5735 5737 5738 5737 5736 5733 5731 5730 5727 5723 5722 5720 5717 5714 5710 5708 5709 5708 5708 5707 5707 5706 5705
5739 5732 5744 5750 5748 5742 5736 5729 5729 5736 5746 5740 5734 5735 5744 5747 5744 5743 5741 5739 5737 5736 5735 5734 5733 5732 5730 5727 5726 5724 5721 5719 5717 5715 5713 5710 5708 5706 5706 5705 5704 5703 5702 5701
5730 5738 5750 5743 5738 5733 5731 5727 5728 5728 5736 5740 5732 5727 5737 5745 5748 5747 5746 5744 5741 5738 5734 5732 5730 5729 5727 5725 5723 5722 5719 5717 5715 5713 5711 5708 5705 5703 5700 5699 5699 5699 5699 5698
5737 5745 5743 5735 5733 5732 5721 5736 5734 5731 5722 5718 5727 5707 5728 5738 5739 5740 5741 5741 5740 5739 5737 5733 5729 5726 5724 5723 5722 5720 5718 5716 5713 5711 5707 5703 5698 5695 5696 5696 5696 5696 5696 5694
5733 5739 5734 5727 5732 5735 5730 5740 5735 5732 5724 5718 5726 5716 5724 5738 5730 5734 5738 5739 5739 5738 5736 5732 5729 5726 5724 5723 5720 5718 5717 5714 5712 5709 5706 5701 5698 5696 5695 5695 5693 5692 5692 5691
5737 5745 5740 5734 5740 5741 5738 5734 5732 5731 5721 5703 5722 5717 5714 5729 5732 5735 5739 5740 5739 5737 5735 5731 5729 5725 5722 5720 5718 5715 5713 5711 5710 5707 5704 5700 5696 5694 5692 5690 5688 5688 5688 5688
5724 5731 5738 5739 5729 5734 5730 5713 5698 5697 5696 5702 5730 5721 5716 5734 5741 5740 5738 5738 5738 5736 5732 5727 5725 5721 5718 5716 5714 5712 5709 5706 5706 5704 5702 5700 5697 5694 5691 5688 5687 5686 5685 5684
5710 5710 5729 5734 5727 5722 5724 5716 5693 5684 5691 5705 5723 5714 5722 5741 5744 5745 5742 5738 5735 5732 5730 5726 5724 5720 5717 5714 5712 5709 5706 5704 5703 5701 5700 5698 5696 5693 5690 5688 5687 5685 5684 5683
5710 5711 5734 5737 5737 5730 5719 5717 5723 5708 5704 5699 5707 5718 5725 5737 5735 5737 5735 5732 5729 5728 5727 5724 5722 5719 5716 5713 5710 5708 5705 5702 5700 5699 5697 5695 5694 5691 5688 5687 5686 5684 5683 5682
5717 5707 5722 5732 5733 5731 5726 5722 5713 5701 5686 5683 5699 5705 5706 5716 5720 5726 5726 5725 5724 5725 5724 5721 5719 5717 5715 5712 5710 5707 5704 5701 5699 5697 5695 5693 5691 5689 5686 5684 5682 5681 5680 5680
5716 5704 5710 5718 5713 5711 5717 5714 5710 5705 5702 5685 5679 5691 5721 5719 5720 5721 5722 5723 5722 5720 5719 5717 5715 5713 5712 5710 5707 5704 5702 5699 5697 5695 5693 5690 5687 5686 5684 5681 5679 5678 5677 5677
5712 5704 5698 5709 5724 5727 5719 5715 5710 5692 5690 5694 5684 5689 5726 5723 5722 5720 5719 5720 5720 5718 5716 5714 5711 5709 5707 5704 5703 5700 5698 5695 5693 5692 5690 5687 5685 5683 5680 5678 5677 5676 5675 5675
5700 5695 5686 5690 5700 5712 5710 5712 5712 5706 5697 5689 5680 5687 5721 5720 5717 5716 5715 5714 5713 5713 5711 5709 5706 5703 5701 5699 5697 5696 5694 5692 5691 5689 5686 5683 5681 5679 5677 5676 5675 5674 5673 5672
5694 5688 5683 5674 5683 5694 5695 5701 5704 5698 5684 5682 5687 5691 5705 5709 5708 5709 5709 5708 5708 5706 5704 5701 5699 5697 5696 5694 5693 5691 5690 5689 5687 5685 5682 5679 5677 5676 5674 5673 5672 5671 5670 5668
5693 5682 5688 5692 5697 5696 5692 5694 5696 5692 5691 5683 5688 5691 5696 5703 5703 5703 5703 5703 5700 5699 5697 5695 5692 5691 5690 5689 5688 5686 5685 5684 5683 5680 5677 5676 5675 5674 5672 5670 5668 5667 5666 5665
5689 5680 5682 5682 5691 5692 5687 5690 5691 5690 5691 5689 5689 5688 5699 5702 5701 5697 5696 5694 5691 5690 5690 5690 5689 5687 5685 5684 5683 5682 5680 5680 5678 5676 5673 5673 5671 5669 5667 5665 5664 5662 5661 5660
5681 5676 5670 5669 5682 5681 5673 5687 5688 5686 5689 5685 5678 5683 5692 5689 5689 5688 5687 5686 5684 5684 5683 5683 5683 5683 5682 5681 5680 5678 5677 5676 5674 5671 5669 5668 5666 5664 5662 5660 5658 5656 5655 5654
5673 5670 5666 5664 5665 5652 5675 5694 5692 5685 5684 5685 5682 5683 5684 5683 5684 5685 5683 5680 5678 5677 5677 5677 5677 5677 5677 5677 5676 5675 5673 5671 5668 5666 5665 5663 5661 5658 5656 5654 5652 5651 5649 5648
5674 5663 5656 5655 5650 5658 5672 5682 5681 5674 5669 5678 5675 5675 5676 5678 5675 5672 5675 5674 5672 5671 5671 5670 5670 5671 5671 5670 5669 5668 5666 5664 5661 5659 5658 5657 5655 5652 5650 5648 5646 5645 5644 5642
5668 5664 5651 5647 5640 5640 5657 5674 5681 5672 5656 5669 5669 5665 5665 5664 5652 5653 5665 5666 5665 5664 5663 5662 5663 5663 5662 5662 5662 5659 5657 5655 5653 5652 5652 5651 5649 5646 5644 5642 5641 5640 5638 5636
5651 5649 5643 5639 5637 5645 5659 5668 5668 5645 5645 5661 5662 5659 5656 5651 5649 5652 5656 5655 5655 5655 5654 5654 5653 5652 5652 5654 5653 5650 5649 5647 5646 5646 5645 5644 5642 5640 5638 5636 5635 5633 5632 5630
5646 5641 5640 5639 5632 5634 5655 5654 5646 5645 5655 5654 5653 5651 5647 5645 5646 5646 5645 5644 5644 5644 5644 5644 5643 5642 5643 5643 5642 5640 5639 5640 5639 5638 5637 5636 5635 5633 5632 5629 5628 5626 5624 5621
5646 5644 5640 5638 5636 5645 5649 5646 5647 5648 5644 5643 5642 5642 5640 5637 5635 5636 5635 5635 5635 5634 5634 5634 5633 5633 5633 5633 5632 5630 5631 5632 5631 5629 5628 5627 5626 5625 5623 5621 5619 5618 5616 5613
5642 5646 5638 5633 5637 5640 5640 5641 5640 5639 5636 5635 5634 5632 5630 5627 5626 5625 5625 5625 5624 5623 5623 5623 5623 5622 5623 5623 5623 5623 5623 5623 5622 5620 5619 5618 5617 5616 5615 5613 5612 5610 5608 5606
5629 5630 5626 5625 5629 5631 5630 5630 5629 5628 5627 5626 5625 5623 5621 5618 5617 5616 5615 5615 5614 5613 5612 5612 5611 5612 5613 5614 5614 5614 5613 5613 5611 5610 5610 5609 5608 5607 5606 5605 5604 5603 5602 5601
5624 5620 5616 5615 5622 5619 5618 5620 5619 5616 5615 5614 5612 5611 5611 5609 5607 5606 5605 5604 5604 5603 5602 5601 5601 5601 5602 5604 5604 5604 5603 5602 5601 5600 5599 5599 5598 5597 5596 5595 5594 5595 5594 5594